Powrót do katalogu

FENGYUN 1C DEB

LostSSO
NORAD 36658·DEBRIS·🇨🇳 China

Wystrzelony May 10, 1999 z Taiyuan Satellite Launch Center

Loading…

Następne Przeloty (najbliższe 24 godziny)

TLE

NieaktualneSource: Space-Track

Epoka: Sep 10, 2022, 01:17 UTC

1 36658U 99025DYC 22253.05404209  .00002223  00000-0  86676-3 0  9996
2 36658  98.7460 330.8720 0081142  28.4596 332.0981 14.28906718728141

Śledź FENGYUN 1C DEB w czasie rzeczywistym z AllMySat

Download on the App Store